Bismarck, ND

12:27 AM CDT on June 24, 2017 (GMT -0500)
Bismarck Municipal

Weather History for KBIS - July, 2013

Change the Weather History Date:

Monday, July 15, 2013

  Actual Average Record
Temperature  
Mean Temperature 76 °F 71 °F  
Max Temperature 85 °F 85 °F 107 °F (1910)
Min Temperature 66 °F 58 °F 39 °F (1912)
Degree Days  
Heating Degree Days 0 0  
Month to date heating degree days 0 13  
Since 1 June heating degree days 86 106  
Since 1 July heating degree days 0 13  
Cooling Degree Days 11 7  
Month to date cooling degree days 112 88  
Year to date cooling degree days 208 188  
Since 1 June cooling degree days 196 171  
Growing Degree Days 24 (Base 50)    
Moisture  
Dew Point 65 °F    
Average Humidity 77    
Maximum Humidity 93    
Minimum Humidity 61    
Precipitation  
Precipitation T in 0.09 in 4.32 in (1993)
Month to date precipitation 0.39 1.49  
Year to date precipitation 13.70 10.13  
Snow  
Snow 0.00 in 0.00 in 0.00 in (2002)
Month to date snowfall 0.0 0.0  
Since 1 June snowfall 0.0 0.0  
Since 1 July snowfall 0.0 0.0  
Snow Depth 0.00 in    
Sea Level Pressure  
Sea Level Pressure 30.09 in    
Wind  
Wind Speed 11 mph (ESE)    
Max Wind Speed 21 mph    
Max Gust Speed 26 mph    
Visibility 10 miles    
Events      
T = Trace of Precipitation, MM = Missing Value Source: NWS Daily Summary

Daily Weather History Graph

Daily Weather History Graph

Search for Another Location

Airport or City:

Trip Planner

Search our weather history database for the weather conditions in past years. The results will help you decide how hot, cold, wet, or windy it might be!

Date:

Astronomy

Jul. 15, 2013 Rise Set
Actual Time 6:04 AM CDT 9:33 PM CDT
Civil Twilight 5:26 AM CDT 10:10 PM CDT
Nautical Twilight 4:36 AM CDT 11:00 PM CDT
Astronomical Twilight 3:30 AM CDT 12:05 AM CDT
Moon 1:57 PM CDT (7/15) 12:17 AM CDT (7/15)
Length of Visible Light 16h 44m
Length of Day
15h 28m
Waxing Crescent, 45% of the Moon is Illuminated
Jul 15
Waxing Crescent
Jul 15
First Quarter
Jul 22
Full
Jul 29
Last Quarter
Aug 6
New

Hourly Weather History & Observations

Time (CDT) Temp. Heat Index Dew Point Humidity Pressure Visibility Wind Dir Wind Speed Gust Speed Precip Events Conditions
12:52 AM 66.0 °F - 60.1 °F 81% 30.18 in 10.0 mi NE 6.9 mph - N/A   Overcast
1:52 AM 66.0 °F - 60.1 °F 81% 30.18 in 10.0 mi ENE 3.5 mph - N/A   Overcast
2:12 AM 66.0 °F - 60.1 °F 81% 30.19 in 10.0 mi NNE 5.8 mph - N/A   Overcast
2:52 AM 66.0 °F - 60.1 °F 81% 30.17 in 10.0 mi ENE 4.6 mph - N/A   Overcast
2:59 AM 66.0 °F - 60.1 °F 81% 30.19 in 10.0 mi Calm Calm - N/A   Overcast
3:07 AM 66.0 °F - 61.0 °F 84% 30.19 in 10.0 mi Calm Calm - N/A   Overcast
3:52 AM 66.0 °F - 61.0 °F 84% 30.17 in 10.0 mi East 3.5 mph - N/A   Overcast
4:52 AM 66.9 °F - 62.1 °F 84% 30.16 in 10.0 mi ENE 5.8 mph - N/A   Overcast
5:52 AM 68.0 °F - 62.1 °F 81% 30.15 in 10.0 mi ENE 8.1 mph - N/A   Overcast
6:52 AM 68.0 °F - 63.0 °F 84% 30.15 in 10.0 mi East 8.1 mph - N/A   Overcast
7:30 AM 68.0 °F - 64.0 °F 87% 30.17 in 10.0 mi East 10.4 mph - N/A   Overcast
7:52 AM 66.9 °F - 64.0 °F 90% 30.15 in 7.0 mi East 6.9 mph - N/A   Overcast
8:31 AM 66.9 °F - 64.9 °F 93% 30.16 in 8.0 mi East 9.2 mph - N/A   Overcast
8:43 AM 66.9 °F - 64.9 °F 93% 30.15 in 6.0 mi East 8.1 mph - N/A   Overcast
8:52 AM 68.0 °F - 64.0 °F 87% 30.14 in 10.0 mi East 15.0 mph - N/A   Overcast
9:52 AM 70.0 °F - 64.0 °F 81% 30.13 in 10.0 mi East 11.5 mph - N/A   Overcast
10:08 AM 71.1 °F - 64.0 °F 78% 30.14 in 10.0 mi East 11.5 mph - N/A   Overcast
10:52 AM 72.0 °F - 64.9 °F 78% 30.12 in 10.0 mi ESE 10.4 mph - N/A   Overcast
11:52 AM 75.0 °F - 66.9 °F 76% 30.10 in 10.0 mi ESE 9.2 mph - N/A   Overcast
12:52 PM 78.1 °F - 68.0 °F 71% 30.09 in 10.0 mi SSE 9.2 mph - N/A   Overcast
1:39 PM 80.1 °F 82.9 °F 69.1 °F 69% 30.09 in 10.0 mi SE 11.5 mph - N/A   Overcast
1:52 PM 80.1 °F 82.9 °F 69.1 °F 69% 30.06 in 10.0 mi SSE 11.5 mph - N/A   Overcast
2:52 PM 79.0 °F - 69.1 °F 72% 30.05 in 10.0 mi SSE 12.7 mph - N/A   Overcast
3:52 PM 81.0 °F 84.4 °F 70.0 °F 69% 30.02 in 10.0 mi SSE 13.8 mph - N/A   Overcast
4:52 PM 82.9 °F 87.5 °F 71.1 °F 67% 29.99 in 10.0 mi SSE 13.8 mph - N/A   Scattered Clouds
5:52 PM 82.9 °F 85.8 °F 68.0 °F 60% 29.97 in 10.0 mi SSE 15.0 mph - 0.00 in   Overcast
6:52 PM 84.9 °F 88.8 °F 69.1 °F 59% 29.95 in 10.0 mi South 17.3 mph 26.5 mph N/A   Partly Cloudy
7:52 PM 82.9 °F 85.8 °F 68.0 °F 60% 29.94 in 10.0 mi SSE 15.0 mph - N/A   Partly Cloudy
8:52 PM 80.1 °F 83.2 °F 70.0 °F 71% 29.94 in 10.0 mi SSE 12.7 mph - N/A   Partly Cloudy
9:52 PM 77.0 °F - 70.0 °F 79% 29.94 in 10.0 mi SE 10.4 mph - N/A   Clear
10:52 PM 75.9 °F - 64.9 °F 69% 29.95 in 10.0 mi SSE 12.7 mph - N/A   Clear
11:52 PM 75.9 °F - 63.0 °F 64% 29.95 in 10.0 mi South 15.0 mph - N/A   Clear